DW6494 Weather Reports


Display with metric or nautical units.
time (UTC)temp
F
wind
direction
speed
MPH
gust
MPH
rain 1hr
in
rain 24hr
in
rain mn
in
humidity
%
barometer
mb
20260507201030 71 168 6.0 10.0 0.00 0.00 0.00 22 1016.0
20260507200530 70 208 1.0 3.0 0.00 0.00 0.00 26 1016.0
20260507200031 69 337 3.0 4.0 0.00 0.00 0.00 23 1016.0
20260507195531 69 152 7.0 9.0 0.00 0.00 0.00 23 1016.0
20260507195031 69 153 9.0 14.0 0.00 0.00 0.00 23 1016.0
20260507194533 69 54 6.0 9.0 0.00 0.00 0.00 23 1016.0
20260507194032 69 153 7.0 12.0 0.00 0.00 0.00 23 1016.0
20260507193532 68 163 8.0 11.0 0.00 0.00 0.00 23 1016.0
20260507193029 68 87 8.0 13.0 0.00 0.00 0.00 23 1016.0
20260507192530 68 91 6.0 11.0 0.00 0.00 0.00 24 1016.0
20260507192029 67 166 8.0 10.0 0.00 0.00 0.00 23 1016.0
20260507191533 67 41 9.0 11.0 0.00 0.00 0.00 23 1017.0
20260507191029 67 49 5.0 7.0 0.00 0.00 0.00 23 1017.0
20260507190531 68 148 9.0 11.0 0.00 0.00 0.00 24 1017.0
20260507190030 67 40 5.0 8.0 0.00 0.00 0.00 22 1017.0
20260507185530 67 317 3.0 5.0 0.00 0.00 0.00 24 1017.0
20260507185029 66 176 4.0 5.0 0.00 0.00 0.00 24 1017.0
20260507184531 66 96 6.0 13.0 0.00 0.00 0.00 24 1017.0
20260507184031 66 134 7.0 10.0 0.00 0.00 0.00 24 1017.0
20260507183531 65 137 7.0 11.0 0.00 0.00 0.00 25 1017.0
20260507183031 65 147 9.0 13.0 0.00 0.00 0.00 26 1017.0
20260507182530 65 154 4.0 9.0 0.00 0.00 0.00 25 1017.0
20260507182030 65 165 8.0 11.0 0.00 0.00 0.00 25 1017.0
20260507181532 64 158 4.0 8.0 0.00 0.00 0.00 25 1017.0
20260507181033 65 147 9.0 13.0 0.00 0.00 0.00 25 1017.0
20260507180533 65 163 11.0 14.0 0.00 0.00 0.00 24 1017.0
20260507180033 65 98 2.0 4.0 0.00 0.00 0.00 26 1017.0
20260507175534 64 147 11.0 15.0 0.00 0.00 0.00 24 1017.0
20260507175031 64 161 8.0 13.0 0.00 0.00 0.00 24 1017.0
20260507174531 64 100 6.0 8.0 0.00 0.00 0.00 24 1018.0
20260507174030 64 161 9.0 14.0 0.00 0.00 0.00 24 1018.0
20260507173533 64 135 9.0 11.0 0.00 0.00 0.00 24 1018.0
20260507173034 63 150 6.0 10.0 0.00 0.00 0.00 23 1018.0
20260507172532 62 159 7.0 9.0 0.00 0.00 0.00 23 1018.0
20260507172031 62 169 5.0 9.0 0.00 0.00 0.00 25 1018.0
20260507171532 61 150 7.0 10.0 0.00 0.00 0.00 24 1018.0
20260507171031 61 133 7.0 9.0 0.00 0.00 0.00 24 1018.0
20260507170532 61 93 5.0 6.0 0.00 0.00 0.00 25 1018.0
20260507170029 61 111 4.0 6.0 0.00 0.00 0.00 28 1018.0
20260507165529 61 143 6.0 12.0 0.00 0.00 0.00 29 1018.0
20260507165029 61 96 6.0 13.0 0.00 0.00 0.00 27 1018.0
20260507164532 60 117 4.0 8.0 0.00 0.00 0.00 28 1018.0
20260507164032 60 98 6.0 9.0 0.00 0.00 0.00 29 1018.0
20260507163534 60 74 5.0 7.0 0.00 0.00 0.00 29 1018.0
20260507163031 60 122 5.0 6.0 0.00 0.00 0.00 29 1018.0
20260507162531 59 83 4.0 8.0 0.00 0.00 0.00 30 1018.0
20260507162032 59 139 8.0 12.0 0.00 0.00 0.00 29 1018.0
20260507161531 59 144 7.0 9.0 0.00 0.00 0.00 30 1018.0
20260507161032 58 113 5.0 7.0 0.00 0.00 0.00 33 1018.0
20260507160533 58 125 7.0 9.0 0.00 0.00 0.00 31 1018.0
20260507160030 58 105 5.0 7.0 0.00 0.00 0.00 34 1018.0
20260507155533 57 100 6.0 8.0 0.00 0.00 0.00 34 1018.0
20260507155033 57 127 4.0 6.0 0.00 0.00 0.00 34 1019.0
20260507154533 57 82 7.0 7.0 0.00 0.00 0.00 33 1019.0
20260507154031 57 79 5.0 7.0 0.00 0.00 0.00 33 1019.0
20260507153532 56 110 4.0 8.0 0.00 0.00 0.00 36 1019.0
20260507153032 56 97 6.0 8.0 0.00 0.00 0.00 36 1019.0
20260507152531 55 53 4.0 5.0 0.00 0.00 0.00 36 1019.0
20260507152033 55 132 4.0 5.0 0.00 0.00 0.00 38 1019.0
20260507151531 55 77 4.0 6.0 0.00 0.00 0.00 38 1019.0
20260507151030 55 0 0.0 0.0 0.00 0.00 0.00 39 1019.0
20260507150533 55 120 3.0 5.0 0.00 0.00 0.00 37 1019.0
20260507150033 55 102 0.0 0.0 0.00 0.00 0.00 39 1019.0
20260507145533 54 101 0.0 0.0 0.00 0.00 0.00 41 1019.0
20260507145032 53 142 3.0 5.0 0.00 0.00 0.00 38 1019.0
20260507144534 54 124 8.0 10.0 0.00 0.00 0.00 38 1019.0
20260507144033 53 129 4.0 5.0 0.00 0.00 0.00 38 1019.0
20260507143529 53 103 4.0 5.0 0.00 0.00 0.00 38 1019.0
20260507143031 53 127 5.0 6.0 0.00 0.00 0.00 38 1019.0
20260507142532 53 84 5.0 7.0 0.00 0.00 0.00 40 1019.0
20260507142031 53 104 4.0 5.0 0.00 0.00 0.00 41 1019.0
20260507141533 53 127 8.0 12.0 0.00 0.00 0.00 41 1019.0
20260507141033 52 122 7.0 9.0 0.00 0.00 0.00 44 1019.0
20260507140533 51 97 8.0 10.0 0.00 0.00 0.00 45 1019.0
20260507140033 50 114 6.0 7.0 0.00 0.00 0.00 46 1019.0
20260507135533 49 126 4.0 5.0 0.00 0.00 0.00 49 1019.0
20260507135031 48 72 2.0 5.0 0.00 0.00 0.00 49 1019.0
20260507134531 48 111 1.0 4.0 0.00 0.00 0.00 49 1019.0
20260507134032 48 114 4.0 4.0 0.00 0.00 0.00 52 1019.0
20260507133532 47 114 6.0 6.0 0.00 0.00 0.00 53 1019.0
20260507133031 48 114 5.0 5.0 0.00 0.00 0.00 55 1019.0
20260507132532 48 84 4.0 4.0 0.00 0.00 0.00 54 1019.0
20260507132031 48 116 4.0 4.0 0.00 0.00 0.00 49 1019.0
20260507131531 48 88 2.0 4.0 0.00 0.00 0.00 51 1019.0
20260507131033 48 107 3.0 4.0 0.00 0.00 0.00 47 1019.0
20260507130533 48 0 0.0 0.0 0.00 0.00 0.00 49 1019.0
20260507130029 47 0 0.0 0.0 0.00 0.00 0.00 49 1019.0
20260507125530 47 82 3.0 4.0 0.00 0.00 0.00 50 1019.0
20260507125033 47 6 2.0 3.0 0.00 0.00 0.00 50 1019.0
20260507124533 46 57 3.0 3.0 0.00 0.00 0.00 55 1019.0
20260507124031 46 90 5.0 6.0 0.00 0.00 0.00 53 1019.0
20260507123531 46 37 4.0 4.0 0.00 0.00 0.00 53 1019.0
20260507123031 45 77 7.0 8.0 0.00 0.00 0.00 55 1019.0
20260507122531 44 99 4.0 5.0 0.00 0.00 0.00 58 1018.0
20260507122035 44 124 6.0 7.0 0.00 0.00 0.00 59 1018.0
20260507121532 43 107 7.0 9.0 0.00 0.00 0.00 61 1018.0
20260507121029 43 97 6.0 7.0 0.00 0.00 0.00 62 1018.0
20260507120531 42 73 8.0 8.0 0.00 0.00 0.00 63 1018.0
20260507120034 42 62 5.0 5.0 0.00 0.00 0.00 63 1018.0
20260507115532 42 41 3.0 4.0 0.00 0.00 0.00 63 1018.0
20260507115032 42 58 5.0 6.0 0.00 0.00 0.00 63 1018.0
20260507114533 42 85 4.0 4.0 0.00 0.00 0.00 63 1018.0
20260507114032 43 151 0.0 0.0 0.00 0.00 0.00 63 1018.0
20260507113531 44 0 0.0 0.0 0.00 0.00 0.00 62 1018.0
20260507113033 44 105 4.0 4.0 0.00 0.00 0.00 62 1018.0
20260507112530 45 107 4.0 4.0 0.00 0.00 0.00 60 1018.0
20260507112032 45 127 5.0 7.0 0.00 0.00 0.00 60 1018.0
20260507111531 45 118 5.0 6.0 0.00 0.00 0.00 57 1018.0
20260507111030 46 112 5.0 5.0 0.00 0.00 0.00 58 1018.0
20260507110534 46 115 5.0 5.0 0.00 0.00 0.00 57 1018.0
20260507110031 47 87 4.0 4.0 0.00 0.00 0.00 55 1018.0
20260507105531 47 89 5.0 5.0 0.00 0.00 0.00 56 1018.0
20260507105029 46 73 6.0 7.0 0.00 0.00 0.00 53 1018.0
20260507104530 46 61 6.0 8.0 0.00 0.00 0.00 53 1018.0
20260507104030 45 68 7.0 7.0 0.00 0.00 0.00 54 1019.0
20260507103530 45 75 7.0 8.0 0.00 0.00 0.00 55 1019.0
20260507103032 44 78 5.0 7.0 0.00 0.00 0.00 59 1019.0
20260507102531 44 77 4.0 4.0 0.00 0.00 0.00 60 1019.0
20260507102032 43 85 4.0 4.0 0.00 0.00 0.00 62 1019.0
20260507101530 43 90 5.0 5.0 0.00 0.00 0.00 62 1019.0
20260507101030 43 67 2.0 4.0 0.00 0.00 0.00 62 1019.0
20260507100531 43 66 3.0 7.0 0.00 0.00 0.00 62 1019.0
20260507100031 43 70 1.0 4.0 0.00 0.00 0.00 62 1019.0
20260507095531 43 103 3.0 4.0 0.00 0.00 0.00 61 1019.0
20260507095031 44 0 0.0 0.0 0.00 0.00 0.00 60 1019.0
20260507094531 44 0 0.0 0.0 0.00 0.00 0.00 58 1019.0
20260507094030 44 0 0.0 0.0 0.00 0.00 0.00 58 1019.0
20260507093531 45 124 4.0 4.0 0.00 0.00 0.00 57 1019.0
20260507093030 45 122 4.0 5.0 0.00 0.00 0.00 56 1019.0
20260507092531 45 114 5.0 6.0 0.00 0.00 0.00 56 1019.0
20260507092032 45 99 6.0 7.0 0.00 0.00 0.00 58 1019.0
20260507091529 46 111 5.0 5.0 0.00 0.00 0.00 56 1019.0
20260507091030 46 96 5.0 5.0 0.00 0.00 0.00 57 1019.0
20260507090533 46 95 5.0 5.0 0.00 0.00 0.00 55 1019.0
20260507090031 46 104 5.0 6.0 0.00 0.00 0.00 52 1019.0
20260507085529 47 112 4.0 4.0 0.00 0.00 0.00 52 1019.0
20260507085029 47 86 4.0 4.0 0.00 0.00 0.00 53 1019.0
20260507084530 47 89 6.0 7.0 0.00 0.00 0.00 51 1019.0
20260507084030 47 117 6.0 6.0 0.00 0.00 0.00 52 1019.0
20260507083531 47 130 3.0 4.0 0.00 0.00 0.00 51 1019.0
20260507083030 47 131 1.0 3.0 0.00 0.00 0.00 51 1019.0
20260507082531 47 94 4.0 5.0 0.00 0.00 0.00 51 1019.0
20260507082029 47 82 4.0 4.0 0.00 0.00 0.00 51 1019.0
20260507081529 47 104 4.0 4.0 0.00 0.00 0.00 51 1019.0
20260507081031 47 72 5.0 5.0 0.00 0.00 0.00 52 1019.0
20260507080530 47 57 4.0 5.0 0.00 0.00 0.00 53 1020.0
20260507080031 47 79 4.0 5.0 0.00 0.00 0.00 53 1020.0
20260507075530 46 80 5.0 7.0 0.00 0.00 0.00 55 1020.0
20260507075033 46 82 6.0 7.0 0.00 0.00 0.00 56 1020.0
20260507074533 46 107 6.0 7.0 0.00 0.00 0.00 55 1020.0
20260507074031 46 104 4.0 5.0 0.00 0.00 0.00 55 1020.0
20260507073532 46 81 4.0 5.0 0.00 0.00 0.00 59 1020.0
20260507073029 46 94 5.0 6.0 0.00 0.00 0.00 58 1020.0
20260507072530 46 80 5.0 5.0 0.00 0.00 0.00 58 1020.0
20260507072031 46 98 5.0 5.0 0.00 0.00 0.00 59 1020.0
20260507071532 47 91 4.0 4.0 0.00 0.00 0.00 55 1020.0
20260507071030 47 95 5.0 5.0 0.00 0.00 0.00 55 1020.0
20260507070531 47 100 4.0 5.0 0.00 0.00 0.00 56 1020.0
20260507070032 47 80 4.0 4.0 0.00 0.00 0.00 54 1020.0
20260507065529 47 102 4.0 4.0 0.00 0.00 0.00 51 1020.0
20260507065031 47 92 6.0 8.0 0.00 0.00 0.00 51 1020.0
20260507064530 47 100 6.0 7.0 0.00 0.00 0.00 51 1020.0
20260507064029 47 114 5.0 6.0 0.00 0.00 0.00 52 1020.0
20260507063532 47 91 7.0 9.0 0.00 0.00 0.00 53 1020.0
20260507063031 48 99 5.0 6.0 0.00 0.00 0.00 52 1020.0
20260507062530 48 68 4.0 5.0 0.00 0.00 0.00 51 1020.0
20260507062029 48 93 4.0 5.0 0.00 0.00 0.00 51 1020.0
20260507061533 48 78 4.0 4.0 0.00 0.00 0.00 52 1020.0
20260507061031 49 88 0.0 3.0 0.00 0.00 0.00 52 1020.0
20260507060529 49 59 6.0 6.0 0.00 0.00 0.00 50 1020.0
20260507060031 49 115 4.0 4.0 0.00 0.00 0.00 49 1020.0
20260507055529 49 74 4.0 4.0 0.00 0.00 0.00 47 1020.0
20260507055031 50 0 0.0 0.0 0.00 0.00 0.00 46 1020.0
20260507054530 50 84 4.0 5.0 0.00 0.00 0.00 47 1020.0
20260507054029 50 73 4.0 5.0 0.00 0.00 0.00 47 1020.0
20260507053531 50 66 3.0 4.0 0.00 0.00 0.00 45 1019.0
20260507053030 50 38 0.0 0.0 0.00 0.00 0.00 44 1020.0
20260507052531 51 67 4.0 4.0 0.00 0.00 0.00 42 1019.0
20260507052029 51 90 2.0 4.0 0.00 0.00 0.00 42 1019.0
20260507051529 51 85 2.0 4.0 0.00 0.00 0.00 42 1019.0
20260507051033 51 67 4.0 5.0 0.00 0.00 0.00 43 1019.0
20260507050530 51 117 2.0 3.0 0.00 0.00 0.00 43 1019.0
20260507050030 51 95 3.0 5.0 0.00 0.00 0.00 44 1019.0
20260507045531 51 74 5.0 6.0 0.00 0.00 0.00 43 1019.0
20260507045031 51 111 3.0 6.0 0.00 0.00 0.00 42 1019.0
20260507044529 51 101 1.0 4.0 0.00 0.00 0.00 43 1019.0
20260507044029 51 68 2.0 4.0 0.00 0.00 0.00 42 1019.0
20260507043529 51 88 4.0 5.0 0.00 0.00 0.00 42 1019.0
20260507043031 52 76 3.0 5.0 0.00 0.00 0.00 42 1019.0
20260507042532 52 69 4.0 5.0 0.00 0.00 0.00 41 1019.0
20260507042030 52 79 5.0 6.0 0.00 0.00 0.00 40 1019.0
20260507041529 53 82 7.0 9.0 0.00 0.00 0.00 39 1019.0
20260507041030 53 65 4.0 6.0 0.00 0.00 0.00 38 1019.0
20260507040531 53 86 5.0 5.0 0.00 0.00 0.00 36 1019.0
20260507040031 53 99 5.0 6.0 0.00 0.00 0.00 36 1019.0
20260507035531 53 113 3.0 6.0 0.00 0.00 0.00 36 1019.0
20260507035032 53 84 4.0 5.0 0.00 0.00 0.00 38 1019.0
20260507034529 53 93 4.0 5.0 0.00 0.00 0.00 38 1019.0
20260507034030 53 76 5.0 6.0 0.00 0.00 0.00 38 1019.0
20260507033530 54 62 7.0 9.0 0.00 0.00 0.00 36 1019.0
20260507033029 54 94 9.0 12.0 0.00 0.00 0.00 35 1019.0
20260507032529 54 104 7.0 11.0 0.00 0.00 0.00 36 1019.0
20260507032029 55 98 9.0 10.0 0.00 0.00 0.00 36 1018.0
20260507031533 55 103 4.0 5.0 0.00 0.00 0.00 33 1018.0
20260507031030 56 0 0.0 0.0 0.00 0.00 0.00 31 1018.0
20260507030531 56 284 0.0 1.0 0.00 0.00 0.00 32 1018.0
20260507030032 56 286 2.0 3.0 0.00 0.00 0.00 31 1018.0
20260507025531 57 0 0.0 0.0 0.00 0.00 0.00 31 1018.0
20260507025031 57 0 0.0 0.0 0.00 0.00 0.00 30 1018.0
20260507024530 57 296 6.0 9.0 0.00 0.00 0.00 30 1018.0
20260507024031 58 309 5.0 6.0 0.00 0.00 0.00 29 1018.0
20260507023531 58 314 3.0 4.0 0.00 0.00 0.00 28 1018.0
20260507023031 58 314 4.0 6.0 0.00 0.00 0.00 27 1018.0
20260507022532 59 322 6.0 9.0 0.00 0.00 0.00 27 1018.0
20260507022031 59 321 4.0 6.0 0.00 0.00 0.00 27 1018.0
20260507021531 60 355 4.0 5.0 0.00 0.00 0.00 26 1018.0
20260507021031 61 34 5.0 5.0 0.00 0.00 0.00 25 1018.0
20260507020531 61 0 3.0 4.0 0.00 0.00 0.00 24 1018.0
20260507020032 61 18 3.0 4.0 0.00 0.00 0.00 24 1018.0
20260507015531 62 19 4.0 7.0 0.00 0.00 0.00 23 1018.0
20260507015031 62 48 0.0 0.0 0.00 0.00 0.00 24 1018.0
20260507014529 62 19 4.0 8.0 0.00 0.00 0.00 23 1018.0
20260507014031 62 24 2.0 4.0 0.00 0.00 0.00 23 1018.0
20260507013531 62 336 3.0 5.0 0.00 0.00 0.00 23 1018.0
20260507013031 62 331 4.0 7.0 0.00 0.00 0.00 22 1018.0
20260507012533 63 346 6.0 8.0 0.00 0.00 0.00 22 1018.0
20260507012030 63 321 5.0 9.0 0.00 0.00 0.00 23 1018.0
20260507011532 62 13 0.0 1.0 0.00 0.00 0.00 23 1018.0
20260507011030 63 287 4.0 9.0 0.00 0.00 0.00 23 1018.0
20260507010529 62 0 0.0 0.0 0.00 0.00 0.00 23 1018.0
20260507010031 62 297 4.0 7.0 0.00 0.00 0.00 22 1018.0
20260507005530 62 314 6.0 9.0 0.00 0.00 0.00 22 1018.0
20260507005034 62 321 6.0 7.0 0.00 0.00 0.00 23 1018.0
20260507004530 62 355 6.0 8.0 0.00 0.00 0.00 22 1018.0
20260507004030 62 297 5.0 7.0 0.00 0.00 0.00 23 1018.0
20260507003530 62 291 4.0 9.0 0.00 0.00 0.00 23 1018.0
20260507003031 62 282 4.0 8.0 0.00 0.00 0.00 23 1018.0
20260507002531 62 303 8.0 9.0 0.00 0.00 0.00 23 1018.0
20260507002031 62 320 4.0 9.0 0.00 0.00 0.00 23 1018.0
20260507001531 62 10 9.0 16.0 0.00 0.00 0.00 23 1018.0
20260507001030 62 290 9.0 15.0 0.00 0.00 0.00 22 1018.0
20260507000534 62 315 7.0 10.0 0.00 0.00 0.00 24 1018.0
20260507000030 62 286 6.0 15.0 0.00 0.00 0.00 24 1018.0
20260506235531 62 289 11.0 16.0 0.00 0.00 0.00 24 1018.0
20260506235030 61 293 12.0 15.0 0.00 0.00 0.00 24 1018.0
20260506234531 62 291 8.0 13.0 0.00 0.00 0.00 24 1018.0
20260506234031 61 292 13.0 16.0 0.00 0.00 0.00 24 1018.0
20260506233533 61 309 8.0 15.0 0.00 0.00 0.00 24 1018.0
20260506233032 61 326 10.0 19.0 0.00 0.00 0.00 24 1018.0
20260506232531 61 285 8.0 14.0 0.00 0.00 0.00 25 1018.0
20260506232031 61 315 8.0 16.0 0.00 0.00 0.00 25 1018.0
20260506231529 61 313 9.0 11.0 0.00 0.00 0.00 25 1018.0
20260506231030 61 311 10.0 17.0 0.00 0.00 0.00 25 1018.0
20260506230531 60 294 12.0 17.0 0.00 0.00 0.00 25 1018.0
20260506230031 60 289 11.0 18.0 0.00 0.00 0.00 25 1018.0
20260506225532 60 291 15.0 19.0 0.00 0.00 0.00 25 1018.0
20260506225029 60 307 11.0 20.0 0.00 0.00 0.00 26 1018.0
20260506224530 60 285 13.0 20.0 0.00 0.00 0.00 25 1018.0
20260506224031 60 300 9.0 18.0 0.00 0.00 0.00 26 1018.0
20260506223533 60 310 14.0 20.0 0.00 0.00 0.00 26 1018.0
20260506223032 60 350 7.0 11.0 0.00 0.00 0.00 26 1018.0
20260506222530 60 302 14.0 18.0 0.00 0.00 0.00 26 1018.0
20260506222030 60 297 14.0 20.0 0.00 0.00 0.00 26 1018.0
20260506221529 60 297 13.0 25.0 0.00 0.00 0.00 26 1018.0
20260506221031 60 295 15.0 19.0 0.00 0.00 0.00 26 1018.0
20260506220529 60 286 11.0 17.0 0.00 0.00 0.00 26 1018.0
20260506220031 60 290 7.0 17.0 0.00 0.00 0.00 25 1018.0
20260506215531 60 286 14.0 21.0 0.00 0.00 0.00 26 1018.0
20260506215031 60 327 10.0 17.0 0.00 0.00 0.00 26 1018.0
20260506214529 60 305 15.0 19.0 0.00 0.00 0.00 26 1018.0
20260506214031 60 303 13.0 23.0 0.00 0.00 0.00 26 1018.0
20260506213532 59 305 13.0 18.0 0.00 0.00 0.00 26 1018.0
20260506213030 59 308 12.0 17.0 0.00 0.00 0.00 27 1018.0
20260506212531 59 291 16.0 27.0 0.00 0.00 0.00 26 1018.0
20260506212031 59 322 9.0 17.0 0.00 0.00 0.00 27 1018.0
20260506211531 59 286 13.0 22.0 0.00 0.00 0.00 26 1018.0
20260506211031 59 335 14.0 26.0 0.00 0.00 0.00 27 1018.0
20260506210530 59 313 11.0 17.0 0.00 0.00 0.00 26 1018.0
20260506210033 59 335 13.0 21.0 0.00 0.00 0.00 26 1018.0
20260506205530 59 347 8.0 16.0 0.00 0.00 0.00 24 1018.0
20260506205029 59 329 11.0 23.0 0.00 0.00 0.00 25 1018.0
20260506204530 59 302 11.0 19.0 0.00 0.00 0.00 26 1018.0
20260506204033 59 295 13.0 30.0 0.00 0.00 0.00 25 1018.0
20260506203531 59 330 13.0 30.0 0.00 0.00 0.00 24 1018.0
20260506203033 58 294 15.0 21.0 0.00 0.00 0.00 25 1018.0
20260506202534 59 305 13.0 22.0 0.00 0.00 0.00 25 1018.0
20260506202031 58 297 17.0 23.0 0.00 0.00 0.00 24 1018.0
20260506201531 58 4 11.0 23.0 0.00 0.00 0.00 23 1018.0